Regional Weather Roundup
Issued by NWS

Home | Current Version | Previous Version | Graphics & Text | Print | Product List | Glossary On
Versions: 1 2 3 4 5 6 7 8 9 10 11 12 13 14 15 16 17 18 19 20 21 22 23 24 25 26 27 28 29 30 31 32 33 34 35 36 37 38 39 40 41 42 43 44 45 46 47 48 49 50
374
ASUS44 KJAN 240003
RWRMS

MISSISSIPPI HOURLY WEATHER ROUNDUP
NATIONAL WEATHER SERVICE JACKSON MS
600 PM CST SUN NOV 23 2014

NOTE: "FAIR: INDICATES FEW OR NO CLOUDS BELOW 12,000 FEET WITH NO
SIGNIFICANT WEATHER AND/OR OBSTRUCTIONS TO VISIBILITY.

MSZ001>002-007>008-010>013-018>021-025>028-034>036-240100-
NORTHWEST MISSISSIPPI

CITY           SKY/WX    TMP DP  RH WIND       PRES   REMARKS
CLARKSDALE     CLOUDY    63  63 100 S7        29.45S
CLEVELAND      FAIR      62  61  96 S15G22    29.45S
GREENWOOD      CLEAR     61  59  93 S10       29.49R
6HR MIN TEMP:  61; 6HR MAX TEMP:  68; 6HR PCP:  0.16;

GREENVILLE     CLEAR     63  59  87 S14       29.46R
6HR MIN TEMP:  62; 6HR MAX TEMP:  66; 6HR PCP:  0.02;

GRENADA        FAIR      61  59  94 CALM        N/A
OLIVE BRANCH   CLOUDY    57  57 100 SW14G24   29.43R
OXFORD         CLOUDY    59  57  94 SW12G20   29.49R
TUNICA         MOCLDY    59  59 100 S14       29.44S
$$

MSZ003>006-009-014>017-022>024-029>033-037>039-240100-
NORTHEAST MISSISSIPPI

CITY           SKY/WX    TMP DP  RH WIND       PRES   REMARKS
COLUMBUS AFB   MOCLDY    64  56  75 S8        29.54R
6HR MIN TEMP:  62; 6HR MAX TEMP:  68; 6HR PCP:  0.08;

CORINTH        LGT RAIN  63  59  88 SW18G35   29.43R
GOLDN TRIANGLE MOCLDY    63  55  77 S12       29.53R
STARKVILLE     CLOUDY    63  57  82 S5        29.54R
TUPELO         CLOUDY    63  58  83 S16G25    29.50R
6HR MIN TEMP:  61; 6HR MAX TEMP:  67; 6HR PCP:  0.43;

$$

MSZ040-058-240100-
CENTRAL MISSISSIPPI

CITY           SKY/WX    TMP DP  RH WIND       PRES   REMARKS
JACKSON INTL   CLEAR     64  57  78 S9        29.55R
6HR MIN TEMP:  64; 6HR MAX TEMP:  70;

JACKSON HAWKNS CLEAR     66  57  72 S9        29.55R
6HR MIN TEMP:  66; 6HR MAX TEMP:  71;

MERIDIAN KEY   CLEAR     63  58  83 S12       29.59R
6HR MIN TEMP:  63; 6HR MAX TEMP:  68; 6HR PCP: TRACE;

MERIDIAN NAS   MOCLDY    65  58  78 S8        29.59R
6HR MIN TEMP:  65; 6HR MAX TEMP:  70; 6HR PCP:  0.01;

RAYMOND        FAIR      66  63  88 S7        29.54R
VICKSBURG      CLEAR     66  58  75 S7        29.53R
6HR MIN TEMP:  63; 6HR MAX TEMP:  70; 6HR PCP:  0.02;

$$

MSZ059>079-240100-
SOUTH MISSISSIPPI

CITY           SKY/WX    TMP DP  RH WIND       PRES   REMARKS
BROOKHAVEN     FAIR      66  57  72 S9G16     29.60R
HATTIESBURG    CLEAR     68  59  73 S9        29.64R
6HR MIN TEMP:  67; 6HR MAX TEMP:  72;

MCCOMB         CLEAR     66  59  78 S12       29.61R
6HR MIN TEMP:  66; 6HR MAX TEMP:  72;

NATCHEZ        CLEAR     66  54  63 S13       29.58R
6HR MIN TEMP:  66; 6HR MAX TEMP:  73;

PINE BELT      CLEAR     66  57  72 S10G16    29.64R
6HR MIN TEMP:  64; 6HR MAX TEMP:  70;

$$

MSZ080>082-240100-
COASTAL MISSISSIPPI

CITY           SKY/WX    TMP DP  RH WIND       PRES   REMARKS
BAY ST LOUIS   CLEAR     64  59  82 S9        29.68R
BILOXI         NOT AVBL
PASCAGOULA     CLEAR     65  62  90 S7        29.70S
6HR MIN TEMP:  62; 6HR MAX TEMP:  68; 6HR PCP: TRACE;

GULFPORT       CLEAR     66  61  84 S8        29.69R
6HR MIN TEMP:  62; 6HR MAX TEMP:  69;

$$



USA.gov is the U.S. government's official web portal to all federal, state and local government web resources and services.